Погода в Уптаре

Россия / Магаданская область     59°53′58″N   150°52′22″E
В апреле 2022 года жителям России запретили посещать сайт meteo.paraplan.net по решению Генеральной прокуратуры. Аудитория сайта уменьшилась в 10 раз. Владельцы сайта не видят смысла в поддержке погодного сервера в таких условиях. Сайт будет закрыт в октябре.
темп.,
°C
ветер,
м/с
пор.,
м/с
влажн.,
%
обл.,
%
осадки,
мм/ч
давл.,
гПа
погр.,
м
25 сентября, вс
вс2523:000ссв33675 0.0 102220
02:00−1ссв33686 0.0 102213
05:00−1ссв3264100 0.0 102114
08:00+1св2259100 0.0 102042
11:00+4св2242100 0.0 1017406
14:00+7св2335100 0.0 1014721
17:00+6ссв2249100 0.0 101343
20:00+2ссв3362100 0.0 101232
26 сентября, пн
пн2623:00+1ссв4464100 0.1 101143
02:00+1ссв3360100 0.0 101036
05:00+1ссв3361100 0.0 101040
08:00+1ссв336197 0.0 101145
11:00+5с2346100 0.0 1011400
14:00+7с1140100 0.0 1010863
17:00+8зсз005079 0.0 101063
20:00+1юв016869 0.0 101210
27 сентября, вт
вт2723:00+1ю1169100 0.0 101310
02:000юв117997 0.0 101210
05:00−1вюв118272 0.0 101210
08:00+1в117768 0.0 101110
11:00+5в1258100 0.0 1009724
14:00+7всв2451100 0.0 10071249
17:00+6всв5661100 0.0 1005694
20:00+2св3373100 0.0 100518
28 сентября, ср
ср2823:00+3ссв3371100 0.0 100428
02:00+2ссв3382100 0.0 100438
05:00+2ссв2286100 0.1 100439
08:00+3св2288100 0.0 1005273
11:00+4св1284100 0.1 1005486
14:00+4в2388100 0.1 1005534
17:00+4в2393100 0.3 1004490
20:00+3в2396100 0.0 1005169
29 сентября, чт
чт2923:00+3св4597100 0.1 1003204
02:00+3всв51195100 1.2 999662
05:00+2в31197100 8.6 998934
08:00+2всв51396100 5.3 995937
11:00+2всв81694100 10.1 9931092
14:00+3в61497100 4.1 991851
17:00+2св3696100 10.1 992370
20:00+3с3592100 0.9 99495